This is the latest recevied weather packets stored in our database for station/object K8MUD. If no packets are shown the sender has not sent any weather packets the latest 10 day(s).
| Time | Temp. | Humidity | Pressure | Rain* | Wind** | Luminosity | Snow |
|---|---|---|---|---|---|---|---|
| 1777837441 | 18.33° C | 38% | 1008.9 hPa | 0 mm | - | - | - |
| 1777837141 | 18.33° C | 37% | 1009 hPa | 0 mm | - | - | - |
| 1777836841 | 18.89° C | 37% | 1009.3 hPa | 0 mm | - | - | - |
| 1777836541 | 18.89° C | 39% | 1009 hPa | 0 mm | - | - | - |
| 1777836241 | 18.33° C | 40% | 1009.1 hPa | 0 mm | - | - | - |
| 1777835940 | 17.78° C | 40% | 1009.3 hPa | 0 mm | - | - | - |
| 1777835641 | 17.78° C | 40% | 1009.4 hPa | 0 mm | - | - | - |
| 1777835340 | 18.33° C | 37% | 1009.6 hPa | 0 mm | - | - | - |
| 1777835040 | 18.33° C | 38% | 1009.5 hPa | 0 mm | - | - | - |
| 1777834740 | 18.89° C | 37% | 1009.8 hPa | 0 mm | - | - | - |
| 1777834440 | 19.44° C | 38% | 1010 hPa | 0 mm | - | - | - |
| 1777834140 | 19.44° C | 37% | 1010 hPa | 0 mm | - | - | - |
| 1777833840 | 18.89° C | 37% | 1010 hPa | 0 mm | - | - | - |
| 1777833540 | 18.33° C | 40% | 1010 hPa | 0 mm | - | - | - |
| 1777833240 | 18.33° C | 38% | 1010.1 hPa | 0 mm | - | - | - |
| 1777832940 | 17.78° C | 39% | 1010.2 hPa | 0 mm | - | - | - |
| 1777832640 | 17.78° C | 39% | 1010.2 hPa | 0 mm | - | - | - |
| 1777832340 | 17.78° C | 38% | 1010.5 hPa | 0 mm | - | - | - |
| 1777832040 | 17.78° C | 38% | 1010.4 hPa | 0 mm | - | - | - |
| 1777831740 | 18.33° C | 38% | 1010.4 hPa | 0 mm | - | - | - |
| 1777831439 | 18.33° C | 37% | 1010.4 hPa | 0 mm | - | - | - |
| 1777831139 | 18.33° C | 38% | 1010.5 hPa | 0 mm | - | - | - |
| 1777830839 | 17.78° C | 37% | 1010.6 hPa | 0 mm | - | - | - |
| 1777830539 | 17.78° C | 38% | 1010.6 hPa | 0 mm | - | - | - |
| 1777830239 | 17.78° C | 38% | 1010.8 hPa | 0 mm | - | - | - |
* Rain latest hour (hover to see other rain measurements)
** Current wind speed in m/s (hover to see current wind gust speed)